Orbital elements of COSMOS 1275 DEB
| Launched | 3 June 1981 |
| Flight ended | – |
| Launch site | Plesetsk Missile and Space Complex, Russia |
| Owner | Commonwealth of Independent States (former USSR) |
| NORAD ID | 12660 |
| Date fetched |
Epoch osculation |
Inc. [°] |
Ecc. | RA asc node [hr] |
Arg Peri. [°] |
Mean anom [°] |
Mean motion [rev/day] |
Abs. mag |
| Date fetched |
Epoch osculation |
Inc. [°] |
Ecc. | RA asc node [hr] |
Arg Peri. [°] |
Mean anom [°] |
Mean motion [rev/day] |
Abs. mag |
| 2026 May 03 17:57 | 2026 Apr 30 10:32:43 | 82.8500 | 0.01289 | 9.0855 | 287.7837 | 192.0275 | 13.65898 | – |
| 2026 May 02 17:57 | 2026 Apr 30 10:32:43 | 82.8500 | 0.01289 | 9.0855 | 287.7837 | 192.0275 | 13.65898 | – |
| 2026 May 01 17:56 | 2026 Apr 30 10:32:43 | 82.8500 | 0.01289 | 9.0855 | 287.7837 | 192.0275 | 13.65898 | – |
| 2026 Apr 30 17:56 | 2026 Apr 30 10:32:43 | 82.8500 | 0.01289 | 9.0855 | 287.7837 | 192.0275 | 13.65898 | – |
| 2026 Apr 29 17:57 | 2026 Apr 24 12:10:04 | 82.8506 | 0.01289 | 9.3778 | 304.2846 | 192.0275 | 13.65898 | – |
| 2026 Apr 28 17:56 | 2026 Apr 24 12:10:04 | 82.8506 | 0.01289 | 9.3778 | 304.2846 | 192.0275 | 13.65898 | – |
| 2026 Apr 27 17:58 | 2026 Apr 24 12:10:04 | 82.8506 | 0.01289 | 9.3778 | 304.2846 | 192.0275 | 13.65898 | – |
| 2026 Apr 26 17:58 | 2026 Apr 24 12:10:04 | 82.8506 | 0.01289 | 9.3778 | 304.2846 | 192.0275 | 13.65898 | – |
| 2026 Apr 25 17:58 | 2026 Apr 24 12:10:04 | 82.8506 | 0.01289 | 9.3778 | 304.2846 | 192.0275 | 13.65898 | – |
| 2026 Apr 24 17:59 | 2026 Apr 24 12:10:04 | 82.8506 | 0.01289 | 9.3778 | 304.2846 | 192.0275 | 13.65898 | – |
| 2026 Apr 23 17:57 | 2026 Apr 19 01:35:27 | 82.8515 | 0.01290 | 9.6458 | 319.4380 | 192.0275 | 13.65898 | – |
| 2026 Apr 22 17:57 | 2026 Apr 19 01:35:27 | 82.8515 | 0.01290 | 9.6458 | 319.4380 | 192.0275 | 13.65898 | – |
| 2026 Apr 21 17:57 | 2026 Apr 19 01:35:27 | 82.8515 | 0.01290 | 9.6458 | 319.4380 | 192.0275 | 13.65898 | – |
| 2026 Apr 20 17:57 | 2026 Apr 19 01:35:27 | 82.8515 | 0.01290 | 9.6458 | 319.4380 | 192.0275 | 13.65898 | – |
| 2026 Apr 19 17:58 | 2026 Apr 19 01:35:27 | 82.8515 | 0.01290 | 9.6458 | 319.4380 | 192.0275 | 13.65898 | – |
| 2026 Apr 18 17:56 | 2026 Apr 13 03:10:33 | 82.8522 | 0.01293 | 9.9381 | 335.8310 | 192.0275 | 13.65898 | – |
| 2026 Apr 16 17:57 | 2026 Apr 13 03:10:33 | 82.8522 | 0.01293 | 9.9381 | 335.8310 | 192.0275 | 13.65898 | – |
| 2026 Apr 14 17:57 | 2026 Apr 13 03:10:33 | 82.8522 | 0.01293 | 9.9381 | 335.8310 | 192.0275 | 13.65898 | – |
| 2026 Apr 13 17:57 | 2026 Apr 13 03:10:33 | 82.8522 | 0.01293 | 9.9381 | 335.8310 | 192.0275 | 13.65898 | – |
| 2026 Apr 12 17:57 | 2026 Apr 08 14:48:14 | 82.8529 | 0.01296 | 10.1604 | 348.3408 | 192.0275 | 13.65898 | – |
| 2026 Apr 11 17:57 | 2026 Apr 08 14:48:14 | 82.8529 | 0.01296 | 10.1604 | 348.3408 | 192.0275 | 13.65898 | – |
| 2026 Apr 10 17:58 | 2026 Apr 08 14:48:14 | 82.8529 | 0.01296 | 10.1604 | 348.3408 | 192.0275 | 13.65898 | – |
| 2026 Apr 09 18:01 | 2026 Apr 08 14:48:14 | 82.8529 | 0.01296 | 10.1604 | 348.3408 | 192.0275 | 13.65898 | – |
| 2026 Apr 08 17:57 | 2026 Apr 08 14:48:14 | 82.8529 | 0.01296 | 10.1604 | 348.3408 | 192.0275 | 13.65898 | – |
| 2026 Apr 07 17:57 | 2026 Apr 02 05:21:31 | 82.8535 | 0.01300 | 10.4753 | 6.0160 | 192.0275 | 13.65898 | – |
| 2026 Apr 06 17:57 | 2026 Apr 02 05:21:31 | 82.8535 | 0.01300 | 10.4753 | 6.0160 | 192.0275 | 13.65898 | – |